Stations météo

réclame
Mon MeteoGroup
Landsort, Suède (2567): Température de l'air & dewpoint: 18.10.2017 00:00:00 - 24.10.2017 00:00:00 (CEST)Landsort, Suède (2567): Vitesse du vent & gusts: 18.10.2017 00:00:00 - 24.10.2017 00:00:00 (CEST)Landsort, Suède (2567): Direction du vent: 18.10.2017 00:00:00 - 24.10.2017 00:00:00 (CEST)Landsort, Suède (2567): reduced air pressure: 18.10.2017 00:00:00 - 24.10.2017 00:00:00 (CEST)Landsort, Suède (2567): visibility: 18.10.2017 00:00:00 - 24.10.2017 00:00:00 (CEST)Landsort, Suède (2567): Quantités de précipitations: 18.10.2017 00:00:00 - 24.10.2017 00:00:00 (CEST)
Date & Time tt [°C] td [°C] ff [km/h] ff [knt] fx [km/h] fx [knt] dd ppp [hPa] vv [km] rr [mm]
24.10.2017 00:00:00 7,2 -2,2 36 19 50 27 ESE 1027,2 50 0,0
23.10.2017 23:00:00 7,4 -0,3 32 17 48 26 E 1027,1 50 0,0
23.10.2017 22:00:00 7,3 -2,1 36 19 50 27 E 1026,9 45 0,0
23.10.2017 21:00:00 7,2 0,0 40 21 61 33 E 1026,5 40 0,0
23.10.2017 20:00:00 7,2 -1,6 43 23 60 32 E 1026,0 37 0,0
23.10.2017 19:00:00 7,2 0,1 47 25 58 31 E 1025,7 27 0,0
23.10.2017 18:00:00 7,3 0,3 43 23 54 29 E 1025,2 28 0,0
23.10.2017 17:00:00 7,3 0,3 43 23 55 30 E 1024,6 45 0,0
23.10.2017 16:00:00 7,5 1,3 40 21 54 29 E 1024,0 30 0,0
23.10.2017 15:00:00 7,4 0,4 40 21 54 29 E 1023,6 30 0,0
23.10.2017 14:00:00 7,6 0,0 42 23 54 29 E 1023,3 38 0,0
23.10.2017 13:00:00 7,5 1,3 41 22 56 30 E 1023,1 42 0,0
23.10.2017 12:00:00 7,4 1,1 44 24 56 30 E 1022,4 35 0,0
23.10.2017 11:00:00 7,4 2,2 43 23 54 29 E 1021,7 39 0,0
23.10.2017 10:00:00 7,6 1,3 41 22 53 29 E 1021,3 47 0,0
23.10.2017 09:00:00 7,1 1,7 44 24 53 29 E 1020,7 45 0,0
23.10.2017 08:00:00 7,4 2,4 34 18 56 31 E 1020,1 19 0,0
23.10.2017 07:00:00 7,1 3,3 45 24 56 31 E 1019,4 15 0,1
23.10.2017 06:00:00 7,5 1,3 44 24 58 31 E 1018,9 48 0,0
23.10.2017 05:00:00 7,8 3,3 49 26 58 31 E 1018,5 41 0,0
23.10.2017 04:00:00 7,4 4,1 47 25 57 31 ENE 1018,3 50 0,0
23.10.2017 03:00:00 8,4 1,9 36 19 54 29 E 1017,9 50 0,0
23.10.2017 02:00:00 8,3 3,1 41 22 53 29 ESE 1017,5 50 0,0
23.10.2017 01:00:00 8,1 2,9 41 22 50 27 ESE 1017,6 47 0,0
23.10.2017 00:00:00 8,3 1,5 38 20 50 27 E 1017,7 49 0,0
22.10.2017 23:00:00 8,2 2,5 41 22 55 30 E 1017,3 47 0,0
22.10.2017 22:00:00 8,0 1,6 42 23 55 30 E 1017,4 36 0,0
22.10.2017 21:00:00 8,2 1,9 43 23 52 28 E 1016,9 38 0,0
22.10.2017 20:00:00 8,2 2,4 44 24 52 28 E 1017,1 48 0,0
22.10.2017 19:00:00 8,1 1,7 40 22 50 27 E 1017,0 50 0,0
22.10.2017 18:00:00 8,1 2,4 40 21 49 26 E 1017,0 49 0,0
22.10.2017 17:00:00 8,0 3,0 37 20 45 25 E 1016,7 50 0,0
22.10.2017 16:00:00 8,4 4,0 34 19 44 24 E 1017,0 50 0,0
22.10.2017 15:00:00 8,4 3,1 34 18 44 24 ESE 1017,2 46 0,0
22.10.2017 14:00:00 8,4 3,1 36 19 44 24 ESE 1017,5 44 0,0
22.10.2017 13:00:00 8,6 2,9 36 19 48 26 ESE 1017,9 44 0,0
22.10.2017 12:00:00 8,4 3,5 37 20 48 26 ESE 1018,1 50 0,0
22.10.2017 11:00:00 8,5 2,9 37 20 46 25 ESE 1017,9 50 0,0
22.10.2017 10:00:00 8,4 3,4 31 17 40 22 SE 1018,5 50 0,0
22.10.2017 09:00:00 8,3 2,9 32 17 42 23 ESE 1018,8 50 0,0
22.10.2017 08:00:00 8,3 3,0 34 18 42 23 ESE 1018,4 50 0,0
22.10.2017 07:00:00 8,3 3,7 31 17 39 21 SE 1018,5 50 0,0
22.10.2017 06:00:00 8,2 3,3 27 15 36 19 ESE 1018,9 50 0,0
22.10.2017 05:00:00 8,4 3,0 25 14 37 20 SE 1019,3 50 0,0
22.10.2017 04:00:00 8,6 3,8 28 15 37 20 SE 1019,7 50 0,0
22.10.2017 03:00:00 8,8 3,2 26 14 38 21 SE 1020,2 50 0,0
22.10.2017 02:00:00 8,8 3,7 29 15 41 22 SE 1020,6 50 0,0
22.10.2017 01:00:00 8,8 3,4 31 17 44 24 SE 1021,0 50 0,0
22.10.2017 00:00:00 8,8 3,6 33 18 45 24 SE 1021,0 50 0,0
21.10.2017 23:00:00 8,6 3,6 35 19 45 24 ESE 1021,3 50 0,0
21.10.2017 22:00:00 8,8 3,0 35 19 45 25 SE 1021,3 50 0,0
21.10.2017 21:00:00 8,9 3,1 34 19 45 25 ESE 1021,3 50 0,0
21.10.2017 20:00:00 8,9 2,7 34 18 42 23 ESE 1021,6 50 0,0
21.10.2017 19:00:00 8,7 3,0 30 16 42 23 ESE 1021,7 50 0,0
21.10.2017 18:00:00 8,7 2,7 34 18 44 24 E 1021,4 45 0,0
21.10.2017 17:00:00 8,9 3,0 31 17 44 24 E 1021,6 45 0,0
21.10.2017 16:00:00 9,0 2,4 30 16 44 24 E 1021,7 47 0,0
21.10.2017 15:00:00 9,3 4,1 35 19 44 24 E 1021,6 37 0,0
21.10.2017 14:00:00 9,5 4,2 35 19 48 26 E 1021,8 39 0,0
21.10.2017 13:00:00 9,5 3,7 36 20 50 27 E 1021,8 35 0,0
21.10.2017 12:00:00 9,8 4,3 40 22 50 27 E 1021,6 36 0,0
21.10.2017 11:00:00 9,9 4,0 40 21 49 27 E 1021,7 41 0,0
21.10.2017 10:00:00 9,9 4,5 38 21 48 26 E 1021,3 37 0,0
21.10.2017 09:00:00 9,8 5,3 39 21 48 26 E 1021,1 32 0,0
21.10.2017 08:00:00 9,6 5,2 40 22 48 26 E 1020,9 36 0,0
21.10.2017 07:00:00 9,7 5,4 40 21 49 26 E 1020,5 37 0,0
21.10.2017 06:00:00 9,8 5,8 40 22 51 27 E 1020,6 47 0,0
21.10.2017 05:00:00 9,8 5,7 41 22 51 27 E 1020,5 36 0,0
21.10.2017 04:00:00 9,9 6,1 39 21 48 26 E 1020,8 43 0,0
21.10.2017 03:00:00 10,0 4,1 37 20 47 25 E 1021,0 50 0,0
21.10.2017 02:00:00 10,0 5,1 34 18 42 23 E 1021,1 50 0,0
21.10.2017 01:00:00 9,8 4,9 32 17 44 24 E 1021,3 43 0,0
21.10.2017 00:00:00 9,9 4,5 34 18 44 24 E 1021,3 48 0,0
20.10.2017 23:00:00 10,2 5,2 37 20 44 24 E 1021,3 50 0,0
20.10.2017 22:00:00 10,3 5,7 36 20 44 24 ESE 1021,4 50 0,0
20.10.2017 21:00:00 10,1 5,5 34 18 39 21 ESE 1021,6 50 0,0
20.10.2017 20:00:00 10,2 5,8 30 16 39 21 ESE 1021,5 50 0,0
20.10.2017 19:00:00 10,1 6,5 29 16 40 21 ESE 1021,4 50 0,0
20.10.2017 18:00:00 10,3 5,8 25 14 31 17 E 1021,2 50 0,0
20.10.2017 17:00:00 10,1 5,7 24 13 31 17 E 1021,3 50 0,0
20.10.2017 16:00:00 10,1 6,0 24 13 31 17 E 1021,4 50 0,0
20.10.2017 15:00:00 10,0 6,7 24 13 31 17 E 1021,4 50 0,0
20.10.2017 14:00:00 9,9 6,4 21 12 30 16 E 1021,7 50 0,0
20.10.2017 13:00:00 9,9 5,8 22 12 30 16 E 1021,8 50 0,0
20.10.2017 12:00:00 9,7 5,4 21 12 26 14 ESE 1022,1 50 0,0
20.10.2017 11:00:00 9,7 5,2 18 10 25 14 SE 1022,2 50 0,0
20.10.2017 10:00:00 9,5 4,7 16 9 26 14 ESE 1022,0 50 0,0
20.10.2017 09:00:00 9,4 4,5 19 10 26 14 SE 1021,4 50 0,0
20.10.2017 08:00:00 9,2 4,5 18 10 24 13 ESE 1021,4 50 0,0
20.10.2017 07:00:00 9,0 4,6 16 9 21 12 ESE 1021,4 50 0,0
20.10.2017 06:00:00 9,1 5,0 15 8 19 11 SE 1021,6 50 0,0
20.10.2017 05:00:00 9,2 4,4 15 8 19 11 SE 1021,7 50 0,0
20.10.2017 04:00:00 9,2 4,5 15 8 19 11 SE 1021,8 50 0,0
20.10.2017 03:00:00 9,0 4,6 13 7 20 11 SSE 1022,0 50 0,0
20.10.2017 02:00:00 9,0 4,9 13 7 22 12 SE 1022,1 50 0,0
20.10.2017 01:00:00 8,8 4,9 15 8 22 12 SE 1022,1 50 0,0
20.10.2017 00:00:00 8,8 4,8 14 8 19 10 SE 1022,0 50 0,0
19.10.2017 23:00:00 8,8 4,4 14 8 18 10 SE 1022,2 50 0,0
19.10.2017 22:00:00 8,7 4,4 13 7 18 10 ESE 1022,0 50 0,0
19.10.2017 21:00:00 7,7 4,7 0 0 14 8 N 1022,0 50 0,0
19.10.2017 20:00:00 8,7 3,4 9 5 14 8 NNE 1021,9 50 0,0
19.10.2017 19:00:00 8,5 3,7 5 3 6 3 N 1021,7 50 0,0
19.10.2017 18:00:00 8,2 4,2 0 0 10 5 N 1021,8 50 0,0
19.10.2017 17:00:00 9,2 4,3 6 3 10 6 W 1021,5 50 0,0
19.10.2017 16:00:00 9,7 4,0 6 3 14 7 W 1021,4 49 0,0
19.10.2017 15:00:00 9,3 3,6 8 4 14 7 NW 1021,4 50 0,0
19.10.2017 14:00:00 9,5 4,1 9 5 14 7 WNW 1021,3 41 0,0
19.10.2017 13:00:00 8,9 4,2 4 2 14 8 NE 1021,3 49 0,0
19.10.2017 12:00:00 8,5 4,8 9 5 15 8 NW 1021,1 45 0,0
19.10.2017 11:00:00 8,1 3,7 8 4 21 11 NNE 1020,9 42 0,0
19.10.2017 10:00:00 7,0 3,5 10 6 22 12 N 1020,6 50 0,0
19.10.2017 09:00:00 6,4 4,0 14 8 22 12 NNW 1020,2 50 0,0
19.10.2017 08:00:00 6,2 4,3 16 9 22 12 NNW 1019,6 50 0,0
19.10.2017 07:00:00 6,2 3,7 15 8 20 11 NNW 1019,1 50 0,0
19.10.2017 06:00:00 6,3 4,0 11 6 20 11 NNW 1018,9 50 0,0
19.10.2017 05:00:00 6,4 4,5 12 6 17 9 NNW 1018,6 50 0,0
19.10.2017 04:00:00 6,9 4,2 11 6 20 11 NW 1018,4 50 0,0
19.10.2017 03:00:00 7,6 4,1 9 5 22 12 NW 1018,1 50 0,0
19.10.2017 02:00:00 8,1 4,7 13 7 32 17 WNW 1017,8 50 0,0
19.10.2017 01:00:00 8,2 4,6 10 6 39 21 WNW 1017,6 50 0,0
19.10.2017 00:00:00 8,3 4,0 21 11 39 21 N 1016,9 50 0,0
18.10.2017 23:00:00 9,4 4,7 24 13 32 17 NW 1016,7 50 0,0
18.10.2017 22:00:00 8,7 5,1 17 9 40 22 WNW 1016,5 50 0,0
18.10.2017 21:00:00 9,3 5,2 28 15 40 22 NW 1015,9 50 0,0
18.10.2017 20:00:00 9,7 5,7 25 14 37 20 NW 1015,4 50 0,0
18.10.2017 19:00:00 9,6 5,2 22 12 36 20 WNW 1015,1 50 0,0
18.10.2017 18:00:00 9,9 5,0 22 12 36 20 WNW 1014,5 50 0,0
18.10.2017 17:00:00 10,4 4,5 24 13 35 19 WNW 1013,9 50 0,0
18.10.2017 16:00:00 10,6 4,6 23 12 34 18 WNW 1013,3 50 0,0
18.10.2017 15:00:00 10,4 4,2 24 13 32 17 WNW 1013,1 48 0,0
18.10.2017 14:00:00 9,9 4,9 23 12 32 17 WNW 1012,8 43 0,0
18.10.2017 13:00:00 9,3 5,2 19 10 27 15 WNW 1012,4 50 0,0
18.10.2017 12:00:00 8,7 5,2 16 9 36 19 WNW 1011,9 47 0,0
18.10.2017 11:00:00 8,5 5,4 21 11 36 19 NW 1011,3 47 0,0
18.10.2017 10:00:00 8,3 5,8 16 9 34 19 NNW 1010,4 46 0,0
18.10.2017 09:00:00 8,1 6,5 16 9 44 24 N 1009,1 50 0,0
18.10.2017 08:00:00 8,2 7,0 25 13 44 24 N 1007,9 50 0,0
18.10.2017 07:00:00 9,1 7,5 26 14 55 30 N 1006,1 50 0,2
18.10.2017 06:00:00 11,4 11,2 33 18 60 33 W 1004,5 39 0,0
18.10.2017 05:00:00 11,2 11,0 48 26 60 33 W 1003,8 4,2 0,0
18.10.2017 04:00:00 11,6 11,4 44 24 63 34 WSW 1003,5 20 0,0
18.10.2017 03:00:00 11,5 11,4 44 24 63 34 WSW 1003,6 11 0,0
18.10.2017 02:00:00 12,6 9,2 40 22 51 28 WSW 1003,6 25 0,0
18.10.2017 01:00:00 12,6 9,3 34 18 51 28 WSW 1003,9 23 0,0
18.10.2017 00:00:00 12,8 9,3 36 20 54 29 WSW 1004,2 22 0,0

tt = Température de l'air
td = dewpoint
ff = Vitesse du vent
fx = gusts
dd = Direction du vent
ppp = reduced air pressure
vv = visibility
rr = Quantités de précipitations

stations d'obs. à proximité